GW5304 Weather Reports


time (UTC)temp
C
wind
direction
speed
KPH
gust
KPH
rain 1hr
cm
rain 24hr
cm
rain mn
cm
humidity
%
barometer
mb
20260508020446 11 247 0.0 0.0 0.00 0.08 0.08 47 1007.3
20260508015942 11 241 0.0 0.0 0.00 0.08 0.08 48 1007.4
20260508015440 10 227 0.0 0.0 0.00 0.08 0.08 49 1007.0
20260508014937 10 244 0.0 0.0 0.00 0.08 0.08 49 1007.0
20260508014433 10 238 0.0 0.0 0.00 0.08 0.08 50 1007.0
20260508013929 10 245 0.0 1.6 0.00 0.08 0.08 49 1006.8
20260508013425 11 248 0.0 1.6 0.00 0.08 0.08 47 1006.9
20260508012923 10 242 1.6 1.6 0.00 0.08 0.08 46 1006.7
20260508012420 10 241 0.0 0.0 0.00 0.08 0.08 49 1006.8
20260508011918 10 243 0.0 0.0 0.00 0.08 0.08 47 1006.6
20260508011415 10 244 0.0 0.0 0.00 0.08 0.08 47 1006.5
20260508010912 10 247 0.0 0.0 0.00 0.08 0.08 49 1006.5
20260508010409 11 241 0.0 0.0 0.00 0.08 0.08 47 1006.5
20260508005906 11 242 0.0 0.0 0.00 0.08 0.08 46 1006.3
20260508005403 11 239 0.0 0.0 0.00 0.08 0.08 47 1006.4
20260508004900 11 255 1.6 1.6 0.00 0.08 0.08 44 1006.4
20260508004356 12 242 0.0 0.0 0.00 0.08 0.08 43 1006.4
20260508003852 12 241 0.0 0.0 0.00 0.08 0.08 42 1006.3
20260508003349 12 246 1.6 1.6 0.00 0.08 0.08 41 1006.0
20260508002847 12 242 0.0 1.6 0.00 0.08 0.08 41 1006.0
20260508002343 12 259 1.6 1.6 0.00 0.08 0.08 39 1005.9
20260508001839 13 265 1.6 1.6 0.00 0.08 0.08 38 1005.9
20260508001335 13 254 1.6 1.6 0.00 0.08 0.08 38 1006.0
20260508000832 13 241 0.0 1.6 0.00 0.08 0.08 38 1005.8
20260508000328 13 276 3.2 3.2 0.00 0.08 0.08 37 1005.7
20260507235825 13 274 3.2 3.2 0.00 0.08 0.08 37 1005.6
20260507235323 13 260 4.8 4.8 0.00 0.08 0.08 38 1005.6
20260507234819 13 249 0.0 1.6 0.00 0.08 0.08 38 1005.4
20260507234316 14 278 1.6 1.6 0.00 0.08 0.08 37 1005.5
20260507233812 14 263 1.6 3.2 0.00 0.08 0.08 36 1005.5
20260507233310 14 253 1.6 1.6 0.00 0.08 0.08 36 1005.5
20260507232808 15 240 3.2 3.2 0.00 0.08 0.08 36 1005.6
20260507232306 15 281 1.6 3.2 0.00 0.08 0.08 37 1005.4
20260507231801 15 262 3.2 3.2 0.00 0.08 0.08 35 1005.3
20260507231258 15 238 1.6 3.2 0.00 0.08 0.08 34 1005.2
20260507230754 15 253 3.2 3.2 0.00 0.08 0.08 34 1005.1
20260507230252 15 25 4.8 4.8 0.00 0.08 0.08 33 1005.1
20260507225751 15 259 1.6 1.6 0.00 0.08 0.08 34 1005.0
20260507225248 15 247 4.8 4.8 0.00 0.08 0.08 35 1005.0
20260507224744 15 237 3.2 3.2 0.00 0.08 0.08 35 1005.1
20260507224241 16 243 3.2 3.2 0.00 0.08 0.08 34 1005.0
20260507223737 16 216 0.0 1.6 0.00 0.08 0.08 36 1005.0
20260507223234 16 282 4.8 8.0 0.00 0.08 0.08 35 1005.0
20260507222730 16 212 1.6 1.6 0.00 0.08 0.08 35 1004.9
20260507222227 16 340 3.2 3.2 0.00 0.08 0.08 34 1005.0
20260507221724 16 312 6.4 11.3 0.00 0.08 0.08 34 1004.8
20260507221220 16 242 0.0 0.0 0.00 0.08 0.08 36 1004.7
20260507220717 16 276 4.8 4.8 0.00 0.08 0.08 33 1004.7
20260507220215 16 284 3.2 3.2 0.00 0.08 0.08 33 1004.7
20260507215711 16 233 3.2 3.2 0.00 0.08 0.08 34 1004.7
20260507215208 16 246 1.6 3.2 0.00 0.08 0.08 35 1004.7
20260507214706 16 231 1.6 1.6 0.00 0.08 0.08 38 1004.7
20260507214202 17 276 4.8 4.8 0.00 0.08 0.08 36 1004.7
20260507213658 17 232 4.8 8.0 0.00 0.08 0.08 34 1004.3
20260507213155 16 253 1.6 1.6 0.00 0.08 0.08 34 1004.5
20260507212651 16 321 3.2 4.8 0.00 0.08 0.08 34 1004.5
20260507212148 16 296 3.2 4.8 0.00 0.08 0.08 35 1004.6
20260507211645 17 234 4.8 8.0 0.00 0.08 0.08 33 1004.4
20260507211140 16 262 3.2 3.2 0.00 0.08 0.08 32 1004.4
20260507210638 17 247 3.2 3.2 0.00 0.08 0.08 34 1004.4
20260507210135 17 238 3.2 3.2 0.00 0.08 0.08 33 1004.4
20260507205631 17 305 3.2 3.2 0.00 0.08 0.08 33 1004.4
20260507205128 17 217 1.6 1.6 0.00 0.08 0.08 32 1004.3
20260507204624 17 239 3.2 4.8 0.00 0.08 0.08 30 1004.5
20260507204122 17 269 4.8 4.8 0.00 0.08 0.08 31 1004.3
20260507203620 17 207 1.6 1.6 0.00 0.08 0.08 31 1004.3
20260507203117 17 355 4.8 4.8 0.00 0.08 0.08 30 1004.4
20260507202613 17 315 6.4 12.9 0.00 0.08 0.08 31 1004.6
20260507202109 18 215 4.8 4.8 0.00 0.08 0.08 31 1004.3
20260507201604 17 223 1.6 3.2 0.00 0.08 0.08 30 1004.3
20260507201101 18 249 0.0 1.6 0.00 0.08 0.08 31 1004.6
20260507200557 17 323 4.8 4.8 0.00 0.08 0.08 30 1004.4
20260507200053 18 255 3.2 4.8 0.00 0.08 0.08 30 1004.5
20260507195550 18 234 1.6 3.2 0.00 0.08 0.08 33 1004.5
20260507195048 17 20 3.2 3.2 0.00 0.08 0.08 30 1004.6
20260507194544 17 200 3.2 3.2 0.00 0.08 0.08 33 1004.6
20260507194040 18 298 8.0 12.9 0.00 0.08 0.08 30 1004.7
20260507193537 18 249 6.4 9.7 0.00 0.08 0.08 31 1004.5
20260507193034 18 285 6.4 9.7 0.00 0.08 0.08 29 1004.6
20260507192530 18 285 4.8 4.8 0.00 0.08 0.08 31 1004.8
20260507192027 17 306 9.7 12.9 0.00 0.08 0.08 31 1004.8
20260507191522 17 291 3.2 4.8 0.00 0.08 0.08 31 1004.7
20260507191020 18 301 3.2 3.2 0.00 0.08 0.08 33 1004.6
20260507190517 18 251 1.6 3.2 0.00 0.08 0.08 30 1005.1
20260507190016 17 217 3.2 4.8 0.00 0.08 0.08 31 1004.9
20260507185514 18 259 8.0 11.3 0.00 0.08 0.08 30 1005.0
20260507185010 18 193 1.6 3.2 0.00 0.08 0.08 31 1005.0
20260507184508 18 228 4.8 8.0 0.00 0.08 0.08 31 1005.1
20260507184006 18 232 4.8 4.8 0.00 0.08 0.08 31 1004.9
20260507183501 18 250 1.6 3.2 0.00 0.08 0.08 32 1004.9
20260507182959 18 213 4.8 4.8 0.00 0.08 0.08 33 1005.0
20260507182455 18 243 4.8 4.8 0.00 0.08 0.08 34 1005.3
20260507181951 18 274 4.8 8.0 0.00 0.08 0.08 31 1005.3
20260507181448 18 350 6.4 9.7 0.00 0.08 0.08 30 1005.2
20260507180944 18 85 4.8 8.0 0.00 0.08 0.08 31 1005.2
20260507180441 18 258 4.8 4.8 0.00 0.08 0.08 32 1005.1
20260507175937 18 252 4.8 8.0 0.00 0.08 0.08 35 1005.2
20260507175434 18 229 3.2 3.2 0.00 0.08 0.08 35 1005.2
20260507174932 17 268 1.6 1.6 0.00 0.08 0.08 37 1005.1
20260507174428 17 279 4.8 8.0 0.00 0.08 0.08 37 1005.2
20260507173926 17 336 3.2 3.2 0.00 0.08 0.08 37 1005.2
20260507173423 17 203 4.8 4.8 0.00 0.08 0.08 38 1005.3
20260507172919 17 176 8.0 8.0 0.00 0.08 0.08 39 1005.1
20260507172416 17 256 1.6 1.6 0.00 0.08 0.08 39 1005.3
20260507171912 17 302 9.7 14.5 0.00 0.08 0.08 43 1005.4
20260507171409 17 29 4.8 4.8 0.00 0.08 0.08 46 1005.5
20260507170906 17 174 3.2 3.2 0.00 0.08 0.08 50 1005.3
20260507170402 17 320 3.2 4.8 0.00 0.08 0.08 47 1005.2
20260507165859 16 198 4.8 4.8 0.00 0.08 0.08 49 1005.4
20260507165354 16 268 3.2 4.8 0.00 0.08 0.08 54 1005.5
20260507164851 16 284 8.0 11.3 0.00 0.08 0.08 52 1005.5
20260507164348 17 333 1.6 4.8 0.00 0.08 0.08 54 1005.7
20260507163845 15 276 1.6 3.2 0.00 0.08 0.08 56 1005.8
20260507163342 15 237 1.6 1.6 0.00 0.08 0.08 52 1005.7
20260507162839 16 184 4.8 8.0 0.00 0.08 0.08 54 1005.9
20260507162334 15 291 3.2 3.2 0.00 0.08 0.08 53 1005.8
20260507161832 16 290 3.2 4.8 0.00 0.08 0.08 50 1005.9
20260507161328 17 263 4.8 4.8 0.00 0.08 0.08 51 1005.9
20260507160825 16 244 1.6 3.2 0.00 0.08 0.08 53 1006.0
20260507160321 17 275 4.8 8.0 0.00 0.08 0.08 49 1006.0
20260507155817 17 308 3.2 9.7 0.00 0.08 0.08 51 1006.2
20260507155313 16 240 1.6 1.6 0.00 0.08 0.08 52 1006.2
20260507154809 16 327 4.8 4.8 0.00 0.08 0.08 49 1006.0
20260507154307 17 226 4.8 8.0 0.00 0.08 0.08 49 1006.2
20260507153804 17 243 1.6 1.6 0.00 0.08 0.08 50 1006.2
20260507153300 16 189 4.8 4.8 0.00 0.08 0.08 45 1006.1
20260507152757 16 275 3.2 3.2 0.00 0.08 0.08 48 1006.1
20260507152253 16 296 3.2 3.2 0.00 0.08 0.08 50 1006.6
20260507151749 15 324 4.8 8.0 0.00 0.08 0.08 50 1006.4
20260507151245 16 235 1.6 3.2 0.00 0.08 0.08 52 1006.5
20260507150742 15 210 1.6 1.6 0.00 0.08 0.08 51 1006.6
20260507150239 15 209 1.6 3.2 0.00 0.08 0.08 51 1006.7
20260507145735 15 205 3.2 3.2 0.00 0.08 0.08 51 1006.7
20260507145232 15 210 1.6 3.2 0.00 0.08 0.08 54 1007.0
20260507144729 15 244 3.2 3.2 0.00 0.08 0.08 53 1006.7
20260507144227 16 204 1.6 1.6 0.00 0.08 0.08 55 1006.7
20260507143723 15 246 0.0 1.6 0.00 0.08 0.08 55 1006.8
20260507143220 15 236 4.8 4.8 0.00 0.08 0.08 57 1006.8
20260507142716 15 237 1.6 1.6 0.00 0.08 0.08 55 1006.8
20260507142213 15 217 1.6 3.2 0.00 0.08 0.08 55 1006.8
20260507141709 15 246 1.6 1.6 0.00 0.08 0.08 56 1006.8
20260507141206 15 260 3.2 3.2 0.00 0.08 0.08 54 1006.7
20260507140702 15 269 1.6 1.6 0.00 0.08 0.08 56 1006.9
20260507140200 15 249 3.2 3.2 0.00 0.08 0.08 57 1006.7
20260507135657 15 297 8.0 9.7 0.00 0.08 0.08 55 1006.8
20260507135154 15 248 1.6 1.6 0.00 0.08 0.08 60 1006.8
20260507134650 14 206 1.6 1.6 0.00 0.08 0.08 58 1006.8
20260507134147 14 304 3.2 3.2 0.00 0.08 0.08 59 1006.9
20260507133643 13 294 4.8 8.0 0.00 0.08 0.08 59 1006.9
20260507133140 14 245 1.6 3.2 0.00 0.08 0.08 59 1006.8
20260507132637 13 241 1.6 3.2 0.00 0.08 0.08 63 1007.1
20260507132133 13 227 1.6 1.6 0.00 0.08 0.08 62 1007.1
20260507131630 13 237 1.6 1.6 0.00 0.08 0.08 62 1007.2
20260507131128 12 289 1.6 3.2 0.00 0.08 0.08 61 1007.3
20260507130624 13 244 3.2 3.2 0.00 0.08 0.08 63 1007.5
20260507130122 13 317 8.0 9.7 0.00 0.08 0.08 63 1007.4
20260507125621 12 255 3.2 3.2 0.00 0.08 0.08 65 1007.4
20260507125118 12 271 0.0 1.6 0.00 0.08 0.08 67 1007.2
20260507124614 12 280 4.8 4.8 0.00 0.08 0.08 67 1007.3
20260507124112 11 238 1.6 3.2 0.00 0.08 0.08 70 1007.2
20260507123610 11 249 3.2 3.2 0.00 0.08 0.08 71 1007.2
20260507123107 11 287 6.4 9.7 0.00 0.08 0.08 72 1007.4
20260507122602 10 206 3.2 3.2 0.00 0.08 0.08 75 1007.3
20260507122058 10 240 0.0 1.6 0.00 0.08 0.08 77 1007.3
20260507121554 10 268 1.6 1.6 0.00 0.08 0.08 78 1007.2
20260507121050 10 252 1.6 1.6 0.00 0.08 0.08 78 1007.4
20260507120546 10 253 4.8 4.8 0.00 0.08 0.08 78 1007.3
20260507120043 10 274 1.6 3.2 0.00 0.08 0.08 79 1007.4
20260507115539 10 233 1.6 1.6 0.00 0.08 0.08 80 1007.3
20260507115035 10 265 3.2 3.2 0.00 0.08 0.08 80 1007.1
20260507114531 10 244 0.0 1.6 0.00 0.08 0.08 81 1007.3
20260507114029 9 240 1.6 1.6 0.00 0.08 0.08 83 1007.2
20260507113526 9 243 1.6 1.6 0.00 0.08 0.08 84 1007.2
20260507113023 9 250 1.6 1.6 0.00 0.08 0.08 85 1007.0
20260507112521 9 242 1.6 1.6 0.00 0.08 0.08 85 1007.0
20260507112017 9 237 0.0 1.6 0.00 0.08 0.08 85 1006.9
20260507111514 9 311 3.2 3.2 0.00 0.08 0.08 87 1006.9
20260507111010 9 291 1.6 3.2 0.00 0.08 0.08 88 1007.1
20260507110508 8 260 1.6 1.6 0.00 0.08 0.08 87 1007.3
20260507110004 8 255 1.6 1.6 0.00 0.08 0.08 88 1007.3
20260507105500 9 242 0.0 0.0 0.00 0.08 0.08 89 1007.5
20260507104957 8 241 0.0 1.6 0.00 0.08 0.08 88 1007.3
20260507104454 9 235 0.0 0.0 0.00 0.08 0.08 88 1007.1
20260507103950 8 229 1.6 3.2 0.00 0.08 0.08 88 1006.8
20260507103447 8 243 0.0 0.0 0.00 0.08 0.08 89 1006.6
20260507102943 8 237 0.0 0.0 0.18 0.08 0.08 89 1006.7
20260507102440 8 266 4.8 4.8 0.18 0.08 0.08 89 1006.8
20260507101936 8 251 1.6 1.6 0.00 0.05 0.05 89 1007.1
20260507101431 8 254 1.6 1.6 0.00 0.05 0.05 90 1006.9
20260507100928 8 246 3.2 3.2 0.00 0.05 0.05 90 1006.6
20260507100426 8 227 0.0 1.6 0.00 0.05 0.05 91 1006.3
20260507095924 8 249 1.6 3.2 0.00 0.05 0.05 91 1006.7
20260507095421 8 264 1.6 1.6 0.00 0.05 0.05 90 1006.6
20260507094918 8 241 0.0 1.6 0.00 0.05 0.05 90 1006.7
20260507094414 9 310 1.6 3.2 0.13 0.05 0.05 89 1006.9
20260507093911 9 278 1.6 1.6 0.13 0.05 0.05 89 1006.7
20260507093409 9 244 1.6 1.6 0.00 0.03 0.03 89 1006.6
20260507092907 9 263 1.6 1.6 0.00 0.03 0.03 90 1006.4
20260507092403 9 244 0.0 1.6 0.00 0.03 0.03 91 1006.8
20260507091900 9 251 1.6 1.6 0.00 0.03 0.03 91 1006.9
20260507091356 10 255 0.0 1.6 0.00 0.03 0.03 91 1006.9
20260507090852 10 247 1.6 1.6 0.00 0.03 0.03 91 1006.8
20260507090348 10 263 1.6 1.6 0.00 0.03 0.03 91 1006.6
20260507085845 9 266 1.6 1.6 0.00 0.03 0.03 91 1006.7
20260507085342 10 249 3.2 3.2 0.00 0.03 0.03 91 1006.8
20260507084840 9 244 1.6 1.6 0.00 0.03 0.03 92 1006.3
20260507084336 10 252 1.6 1.6 0.00 0.03 0.03 92 1006.3
20260507083833 10 250 1.6 1.6 0.00 0.03 0.03 92 1006.4
20260507083330 10 242 0.0 0.0 0.00 0.03 0.03 92 1006.2
20260507082826 10 243 0.0 0.0 0.00 0.03 0.03 92 1006.0
20260507082321 10 262 3.2 3.2 0.00 0.03 0.03 92 1006.1
20260507081819 10 249 3.2 3.2 0.00 0.03 0.03 92 1006.2
20260507081315 10 268 0.0 1.6 0.00 0.03 0.03 92 1006.4
20260507080811 10 245 1.6 3.2 0.18 0.03 0.03 91 1006.6
20260507080308 10 275 4.8 4.8 0.18 0.03 0.03 90 1006.5
20260507075803 10 245 0.0 1.6 0.18 0.03 0.03 88 1006.4
20260507075259 10 313 4.8 4.8 0.00 0.00 0.00 87 1006.2
20260507074756 11 259 1.6 3.2 0.00 0.00 0.00 87 1006.3
20260507074254 10 237 1.6 1.6 0.00 0.00 0.00 87 1006.1
20260507073751 11 252 1.6 1.6 0.00 0.00 0.00 87 1005.8
20260507073247 11 248 1.6 3.2 0.00 0.00 0.00 87 1005.8
20260507072745 11 249 3.2 3.2 0.00 0.00 0.00 87 1005.9
20260507072242 11 281 4.8 4.8 0.00 0.00 0.00 87 1006.0
20260507071740 11 247 1.6 1.6 0.00 0.00 0.00 87 1005.8
20260507071236 11 272 4.8 4.8 0.00 0.00 0.00 86 1005.7
20260507070733 11 269 3.2 3.2 0.00 0.00 0.00 86 1005.6
20260507070230 11 249 0.0 0.0 0.00 0.00 0.00 86 1005.5
20260507065726 11 281 3.2 4.8 0.00 0.00 0.00 86 1005.8
20260507065223 11 257 4.8 4.8 0.00 0.00 0.00 86 1005.7
20260507064721 11 260 1.6 1.6 0.00 0.00 0.00 87 1005.6
20260507064220 11 246 1.6 1.6 0.00 0.00 0.00 88 1005.7
20260507063716 11 249 1.6 1.6 0.00 0.00 0.00 87 1005.7
20260507063213 11 250 1.6 1.6 0.00 0.00 0.00 88 1005.4
20260507062710 11 246 1.6 3.2 0.00 0.00 0.00 89 1005.3
20260507062208 11 290 8.0 11.3 0.00 0.00 0.00 90 1005.6
20260507061705 11 254 1.6 1.6 0.00 0.00 0.00 91 1005.5
20260507061203 11 297 3.2 4.8 0.00 0.00 0.00 92 1005.6
20260507060701 11 309 1.6 1.6 0.00 0.00 0.00 92 1005.6
20260507060157 11 244 1.6 1.6 0.00 0.00 0.00 92 1005.5
20260507055653 12 261 1.6 3.2 0.00 0.00 0.00 93 1005.7
20260507055149 12 245 1.6 1.6 0.00 0.00 0.00 92 1005.6
20260507054645 12 270 6.4 8.0 0.00 0.00 0.00 92 1005.8
20260507054142 12 254 3.2 3.2 0.00 0.00 0.00 92 1005.8
20260507053640 12 255 4.8 4.8 0.00 0.00 0.00 92 1005.7
20260507053138 12 255 3.2 4.8 0.00 0.00 0.00 94 1005.7
20260507052636 12 244 1.6 1.6 0.00 0.00 0.00 95 1005.7
20260507052132 12 240 0.0 1.6 0.00 0.00 0.00 96 1005.6
20260507051630 12 259 6.4 8.0 0.00 0.00 0.00 96 1005.6
20260507051126 13 264 3.2 4.8 0.00 0.00 0.00 97 1005.6
20260507050623 13 275 0.0 0.0 0.00 0.00 0.00 98 1006.0
20260507050120 13 266 3.2 3.2 0.00 0.00 0.00 98 1005.8
20260507045617 13 252 1.6 1.6 0.00 0.00 0.00 98 1005.6
20260507045114 13 275 1.6 3.2 0.00 0.00 0.00 98 1005.4
20260507044610 13 283 3.2 3.2 0.00 0.00 0.00 99 1005.5
20260507044108 14 299 4.8 4.8 0.00 0.00 0.00 99 1005.5
20260507043603 14 243 0.0 1.6 0.00 0.00 0.00 99 1005.4
20260507043101 14 242 0.0 0.0 0.00 0.00 0.00 99 1005.8
20260507042556 14 345 4.8 8.0 0.00 0.00 0.00 99 1005.4
20260507042052 15 236 0.0 0.0 0.00 0.00 0.00 99 1005.5
20260507041549 15 248 0.0 0.0 0.00 0.00 0.00 99 1005.4
20260507041046 15 247 0.0 0.0 0.00 0.00 0.00 99 1005.8
20260507040542 15 241 0.0 0.0 0.00 0.00 0.00 99 1005.6
20260507040038 15 213 0.0 0.0 0.13 0.33 0.33 99 1005.4
20260507035535 15 222 0.0 0.0 0.13 0.33 0.33 99 1005.2
20260507035031 15 243 1.6 1.6 0.00 0.30 0.30 99 1005.3
20260507034528 15 218 3.2 3.2 0.00 0.30 0.30 99 1005.3
20260507034026 15 224 1.6 1.6 0.00 0.30 0.30 99 1005.5
20260507033524 15 196 4.8 4.8 0.00 0.30 0.30 99 1005.4
20260507033021 15 209 1.6 1.6 0.00 0.30 0.30 99 1005.1
20260507032518 15 202 1.6 3.2 0.00 0.30 0.30 99 1005.0
20260507032014 15 221 1.6 1.6 0.00 0.30 0.30 99 1005.0
20260507031510 15 235 1.6 1.6 0.00 0.30 0.30 99 1004.7
20260507031008 15 192 3.2 3.2 0.00 0.30 0.30 99 1004.8
20260507030504 15 212 1.6 3.2 0.00 0.30 0.30 99 1004.7
20260507030002 15 203 1.6 1.6 0.00 0.30 0.30 99 1004.8
20260507025458 15 237 1.6 1.6 0.00 0.30 0.30 99 1004.8
20260507024956 15 213 3.2 3.2 0.00 0.30 0.30 99 1004.8
20260507024453 14 211 3.2 3.2 0.00 0.30 0.30 99 1004.9
20260507023949 14 234 1.6 1.6 0.00 0.30 0.30 99 1004.9
20260507023446 14 195 4.8 8.0 0.00 0.30 0.30 99 1004.9
20260507022943 14 222 4.8 4.8 0.00 0.30 0.30 99 1005.0
20260507022441 14 235 3.2 3.2 0.00 0.30 0.30 99 1005.0
20260507021936 14 185 3.2 3.2 0.00 0.30 0.30 99 1004.7
20260507021431 14 227 1.6 3.2 0.00 0.30 0.30 99 1004.8
20260507020930 14 192 6.4 8.0 0.00 0.30 0.30 99 1005.0